User: anonymous   Login
Location: Hurecourt
(47.9030°N, 6.0653°E)
Time: 23:57:11
(UTC+00:00)
Language:

SL-24 DEB - Orbit

View from above orbital plane
View from above orbital plane
View from above satellite
View from above satellite

Ground track
Ground track

The orbit data is extracted from the following two-line orbital elements,

1 36510U 10013C   20273.36511716 +.00000369 +00000-0 +70614-4 0  9994
2 36510 092.0245 147.7624 0026849 095.4640 264.9637 14.63214162558462
Epoch (UTC): 29 September 2020 08:45:46
Eccentricity: 0.0026849
inclination: 92.0245°
perigee height: 664 km
apogee height: 702 km
right ascension of ascending node: 147.7624°
argument of perigee: 95.4640°
revolutions per day: 14.63214162
mean anomaly at epoch: 264.9637°
orbit number at epoch: 55846

The dashed part of the orbit path shows where the satellite is in the earth's shadow,  

DLR